User: anonymous   Login
Location: Bletchingley
(51.2333°N, 0.1000°W)
Time: 21:35:38
(UTC+00:00)
Language:

Cosmos 2266 Rocket - Orbit

View from above orbital plane
View from above orbital plane
View from above satellite
View from above satellite

Ground track
Ground track

The orbit data is extracted from the following two-line orbital elements,

1 22889U 93070B   21134.58897496  .00000111  00000-0  95039-4 0  9998
2 22889  82.9441 335.7484 0049727 187.0137 173.0332 13.77946928383952
Epoch (UTC): 14 May 2021 14:08:07
Eccentricity: 0.0049727
inclination: 82.9441°
perigee height: 934 km
apogee height: 1008 km
right ascension of ascending node: 335.7484°
argument of perigee: 187.0137°
revolutions per day: 13.77946928
mean anomaly at epoch: 173.0332°
orbit number at epoch: 38395

The dashed part of the orbit path shows where the satellite is in the earth's shadow,  

DLR